Location: Bottenau
(48.5138°N, 8.0462°E)
Time: 04:25:08
(UTC+00:00)

SPOT 5 - Pass Details

Date: 18 April 2021
Orbit: 624 x 814 km, 98.2° (Epoch: 09 May)

Event Time Altitude Azimuth Distance (km) Brightness Sun altitude
Exits shadow 19:40:17 13° 92° (E) 1,883 4.5 -12.3°
Maximum altitude 19:42:32 18° 58° (ENE) 1,639 4.5 -12.6°
Drops below altitude 10° 19:45:44 10° 15° (NNE) 2,177 5.6 -13.0°
Sets 19:48:39 0° 358° (N) 3,140 6.7 -13.4°
